Wind_Speed
43 43 43 43 42 42 42 41 42 41 41 40 40 39 38 37 36 35 34 33 32 31 30 29 28 27 27 26 26 25 24 24 24 24 24 24 25 28 32 36 40 41 42 43 44 44 44 43 42 41 40 40 40 39 39 39 38 38 37 37 36 35 34 33 33 32 31 30 29 29 29 28 27 26 26 26 26 26 26 27 28 28 29 30 31 32 33 32
44 44 44 44 44 44 43 43 43 43 43 43 42 41 41 40 39 38 37 36 35 34 33 32 31 30 30 29 29 28 27 26 27 26 24 24 24 25 29 32 36 38 39 42 43 44 44 45 44 43 42 42 41 41 40 40 40 39 39 39 38 37 37 35 35 34 33 33 32 32 31 29 29 28 28 28 28 27 27 28 29 29 29 30 31 32 32 30
45 45 46 46 46 46 45 45 45 45 45 45 44 44 43 43 42 41 40 39 38 37 36 35 34 33 32 32 31 30 30 28 29 30 27 26 25 24 27 29 31 34 36 39 41 42 43 44 45 45 45 44 43 42 42 42 41 40 40 39 39 39 38 37 37 36 36 35 34 33 32 31 30 30 30 29 29 28 29 29 30 30 30 31 31 31 30 27
46 46 47 47 47 47 47 47 47 47 47 47 46 46 46 45 45 44 43 42 42 41 39 38 37 36 35 34 34 33 32 31 32 33 31 28 27 26 27 28 28 30 32 35 38 40 41 42 44 45 45 45 45 44 44 44 43 42 41 40 40 40 39 39 38 38 38 36 35 34 33 32 32 32 31 31 30 30 30 31 31 30 30 31 30 29 27 24
46 47 47 48 48 49 49 49 49 49 49 49 49 48 48 48 48 47 46 45 45 44 43 42 40 39 38 37 37 36 35 34 34 35 33 31 30 28 29 29 29 29 30 32 34 37 38 38 41 43 44 45 45 45 46 46 45 43 42 42 41 40 40 40 39 40 39 37 36 36 35 34 34 34 33 33 32 31 32 31 31 30 30 29 28 26 23 20
47 48 49 49 49 50 50 51 51 51 51 51 51 51 51 51 50 50 49 48 47 47 46 45 44 43 42 40 40 39 38 38 37 36 36 35 33 32 31 30 30 31 30 30 31 34 35 34 36 38 40 41 43 44 45 46 46 45 44 43 42 41 42 42 41 42 41 39 39 38 37 37 36 36 35 34 33 32 32 31 30 29 29 27 25 22 19 17
49 50 50 51 51 51 52 52 53 53 53 53 54 53 53 53 52 52 51 50 50 49 48 48 47 46 45 44 43 42 41 41 39 37 38 39 37 35 34 33 32 32 32 31 30 31 32 31 31 33 35 36 37 39 41 43 44 45 45 44 43 44 44 44 43 43 42 41 41 39 39 39 38 37 36 35 33 32 31 30 28 27 26 24 21 19 15 15
50 51 52 52 52 53 53 54 54 54 54 55 55 55 55 54 54 53 53 52 51 51 51 51 50 49 48 47 46 45 43 44 42 40 41 41 40 38 37 36 34 34 34 32 32 32 32 30 27 28 30 30 29 31 35 38 39 40 42 43 44 44 44 45 44 43 43 42 41 40 40 39 39 38 36 34 33 31 30 28 26 25 23 20 18 15 12 13
51 52 53 54 54 54 55 55 56 56 56 56 57 56 56 55 55 54 54 53 53 53 53 53 52 51 51 50 49 48 46 45 45 43 43 44 43 41 40 39 38 36 35 34 34 34 33 29 26 25 25 23 22 25 29 31 31 33 36 39 41 41 42 43 42 42 42 42 40 39 39 39 38 36 34 33 31 30 28 26 24 22 19 17 15 11 10 12
52 53 54 54 55 55 56 56 57 57 57 57 58 58 57 56 56 55 55 54 54 55 54 54 54 53 52 52 51 50 48 48 48 47 47 47 46 44 42 42 41 39 38 36 36 36 34 30 27 26 25 24 23 24 26 25 23 25 29 32 34 36 37 38 39 39 39 39 37 36 36 36 35 33 32 30 29 28 25 23 20 18 16 14 11 7 9 12
52 53 54 55 55 56 56 57 58 58 58 58 59 59 59 58 57 57 56 55 56 56 56 55 55 55 54 53 52 52 52 51 51 50 49 50 50 48 45 44 43 42 41 39 38 37 36 33 31 30 28 27 25 24 24 20 18 22 25 26 28 30 32 33 34 35 36 35 33 32 33 32 31 29 28 28 27 25 23 20 17 15 14 11 6 5 8 10
53 54 55 56 56 57 57 58 58 59 59 59 60 60 60 60 59 58 57 57 58 58 57 56 56 56 55 54 54 54 53 53 53 52 52 52 53 52 49 47 46 45 44 43 41 39 38 37 35 33 32 30 28 26 24 20 19 22 23 22 24 25 26 28 29 30 30 29 29 29 28 27 26 25 24 24 24 23 20 17 14 13 10 6 2 4 7 9
57 57 58 59 58 58 59 59 60 60 60 60 61 61 61 61 61 60 59 59 60 60 59 58 58 58 57 56 55 55 55 54 55 55 55 55 55 55 53 50 48 48 47 46 44 42 41 40 39 36 34 33 31 30 27 23 21 23 23 22 22 22 22 23 23 24 24 24 24 23 22 21 21 20 20 21 21 20 18 15 12 10 6 2 1 4 6 8
61 61 62 63 63 62 62 63 63 63 62 62 63 63 63 63 63 62 61 61 61 61 61 61 61 60 59 58 57 57 57 56 56 57 57 58 58 57 56 54 51 50 50 49 47 45 43 42 41 39 37 35 34 33 31 27 24 25 25 24 24 22 20 21 20 20 19 19 18 17 17 17 16 15 16 18 18 18 16 13 11 9 6 3 1 3 5 7
65 66 66 67 67 67 67 67 67 67 66 66 66 66 66 66 65 64 63 63 63 63 63 63 63 62 61 60 59 59 59 59 58 59 59 59 60 59 58 57 55 53 52 51 49 48 46 44 43 42 41 39 36 35 34 31 28 27 27 27 26 23 21 21 20 18 17 15 14 14 14 14 12 12 12 13 15 15 15 14 12 10 6 2 1 2 4 6
68 68 69 70 71 71 72 72 72 72 71 71 71 71 70 70 69 68 66 66 66 65 65 65 65 64 63 63 62 61 61 61 61 61 61 61 61 61 60 59 58 56 55 54 53 51 49 47 46 45 44 41 38 37 37 35 31 29 30 31 30 27 24 23 22 19 17 16 14 14 13 12 11 11 10 11 13 15 15 15 14 10 6 2 1 1 3 5
68 69 70 71 72 73 74 74 75 75 75 75 75 75 75 75 74 72 70 70 69 69 68 68 68 67 66 65 64 63 63 64 63 62 62 63 63 63 62 60 60 59 57 56 55 53 51 50 49 47 45 43 41 39 38 37 35 34 35 35 34 30 27 25 23 20 19 17 15 15 13 11 11 10 10 10 13 14 15 15 14 10 6 3 1 1 2 3
68 68 69 71 72 73 74 75 76 76 77 77 78 78 79 79 79 77 75 74 74 73 73 72 71 71 70 68 67 66 65 65 65 65 64 65 65 64 64 62 61 60 59 58 56 55 54 52 51 50 47 44 42 41 39 41 41 40 40 38 35 31 28 27 24 21 20 18 16 16 14 12 11 9 9 10 12 13 14 13 11 9 6 3 2 0 1 2
66 67 68 69 71 72 73 74 75 76 77 78 79 80 80 81 82 81 79 78 78 78 78 77 76 75 74 73 72 70 68 67 67 67 66 67 67 66 65 64 63 61 60 59 59 58 57 56 54 50 48 48 47 47 46 47 47 45 43 39 35 32 30 28 26 22 21 18 17 17 15 14 12 9 9 11 11 12 12 11 9 7 5 4 3 1 1 1
67 67 68 68 69 71 72 73 74 75 76 78 79 80 81 82 83 83 81 80 81 82 82 82 81 80 79 77 76 75 73 71 69 69 68 69 68 67 67 66 64 63 61 61 61 61 61 58 54 53 54 55 54 51 50 49 49 47 44 41 38 36 33 31 28 26 24 22 20 19 16 16 14 11 11 11 12 13 11 9 8 7 6 5 4 2 1 1
69 69 70 70 71 72 72 73 73 74 75 77 79 80 81 82 83 84 83 82 82 83 84 84 84 84 83 82 81 80 78 75 73 72 72 72 71 70 69 68 66 64 64 64 63 63 62 57 56 59 60 58 56 53 51 51 51 49 46 44 42 39 37 35 31 30 29 27 24 21 19 19 18 15 13 13 14 13 10 9 9 8 7 6 5 4 3 2
72 73 73 73 74 74 75 76 76 76 77 78 79 81 82 82 83 84 84 84 83 83 84 85 85 85 85 86 85 84 83 81 78 76 76 75 75 73 71 69 68 66 67 66 64 63 60 58 61 65 62 60 58 56 53 53 53 51 48 47 45 43 42 38 35 34 33 32 29 25 23 22 20 17 16 16 15 12 11 11 11 9 8 8 7 6 4 4
74 75 76 76 76 77 78 79 80 80 80 80 81 82 83 83 84 84 85 85 85 84 84 86 86 86 86 87 87 87 87 86 83 81 80 79 78 77 74 72 71 69 68 66 64 64 61 62 69 68 63 62 61 58 56 56 55 52 49 48 47 48 46 42 40 37 35 35 33 28 26 25 22 19 19 19 16 14 14 14 14 12 11 10 9 7 6 5
75 76 78 78 78 79 81 82 83 83 83 83 84 85 85 86 86 87 87 87 87 86 85 86 86 86 87 87 88 88 89 89 88 87 85 84 82 81 78 76 74 72 70 68 67 66 65 69 74 68 64 65 63 61 60 58 57 55 52 50 51 52 51 47 43 40 39 39 36 32 28 26 24 23 24 22 19 18 18 18 17 14 13 11 10 9 7 7
75 76 78 79 79 80 82 84 85 85 85 85 86 86 87 88 89 90 90 90 90 89 88 86 86 86 87 87 88 89 90 90 90 90 89 88 87 85 83 81 78 75 73 71 70 68 68 73 74 67 66 68 65 63 61 59 59 57 54 53 55 57 54 51 46 43 42 42 40 35 30 29 28 27 28 24 21 22 22 21 18 15 14 13 12 11 10 9
75 76 78 79 80 82 83 85 86 87 87 87 87 87 88 89 90 91 91 92 93 93 92 90 87 87 86 86 88 90 90 90 91 91 92 92 91 89 87 85 82 80 78 76 73 71 71 75 75 69 68 70 67 65 63 62 61 58 57 58 60 60 57 53 49 46 44 44 44 39 33 33 31 30 30 26 24 25 24 22 19 17 18 16 14 13 11 11
73 74 77 78 80 81 83 85 87 88 88 88 89 89 89 89 90 90 91 92 92 93 94 93 91 90 88 88 90 90 90 91 91 91 92 93 93 93 91 89 87 85 83 81 76 72 72 77 75 70 69 70 69 66 65 64 62 61 63 63 62 62 60 57 52 48 46 46 46 42 38 36 33 32 32 28 27 27 26 25 21 20 20 18 16 15 13 13
72 74 75 77 78 79 81 83 85 86 88 88 89 89 88 88 89 90 90 91 91 91 92 93 92 91 91 93 94 92 91 91 91 91 93 93 94 94 94 93 91 90 88 85 79 75 76 79 76 72 72 71 70 69 69 68 65 67 69 65 64 65 63 60 55 50 48 48 46 43 40 38 35 36 34 30 29 29 29 29 26 24 22 19 18 17 15 15
73 74 75 76 77 78 79 81 83 85 86 87 87 87 87 87 87 88 89 90 89 90 90 90 91 91 92 95 97 96 95 94 92 92 92 93 94 95 96 95 94 93 92 89 84 80 81 82 79 76 73 72 73 75 75 72 70 72 73 67 67 68 66 63 58 53 51 47 44 44 42 39 38 39 36 32 32 33 35 33 29 27 25 22 21 18 17 17
73 74 75 75 76 77 78 79 81 82 84 84 85 86 86 86 86 86 87 88 87 87 87 88 89 89 91 93 95 97 98 97 96 95 94 94 95 96 97 97 95 94 94 93 89 86 85 85 82 77 74 74 77 79 78 75 75 77 75 70 70 70 67 64 60 56 51 44 43 46 43 41 41 40 36 34 36 39 38 35 32 30 27 25 23 21 20 19
71 72 73 74 75 76 76 77 78 79 80 82 82 83 84 84 84 85 86 86 86 85 86 87 87 87 88 90 92 95 97 99 100 99 97 96 96 96 96 97 96 95 95 95 93 91 90 89 84 79 77 78 80 80 79 78 78 79 76 72 72 71 69 65 61 57 49 42 44 48 45 42 41 40 38 39 41 41 38 35 34 32 29 28 25 23 22 19
68 70 71 72 73 74 74 75 76 76 76 77 77 78 79 79 80 81 83 83 83 83 84 85 85 86 88 89 89 91 94 96 99 101 101 100 99 98 97 97 97 97 96 95 95 95 94 92 88 84 82 82 82 81 80 80 79 79 77 74 73 71 70 66 61 55 46 41 44 48 46 41 41 42 42 42 43 41 39 38 36 35 33 30 27 24 22 19
65 66 67 68 69 69 70 70 70 70 70 71 71 72 72 73 74 75 77 79 79 80 81 82 83 85 87 88 89 90 91 93 95 99 102 103 103 101 99 98 97 98 97 96 97 97 97 97 93 89 87 85 84 83 81 80 79 79 78 76 73 72 70 66 61 54 47 43 45 48 46 41 41 46 45 45 46 44 42 41 38 38 35 32 28 25 23 21
60 61 62 63 63 64 64 64 63 63 65 66 67 67 68 68 69 70 72 74 75 75 76 78 80 82 84 86 87 89 90 91 92 96 100 103 106 105 104 101 99 98 98 97 98 98 99 100 98 93 89 87 86 84 82 81 82 82 80 78 76 73 70 66 62 57 49 46 46 48 46 41 43 49 49 48 50 46 44 43 41 40 37 33 30 26 25 23
56 58 59 59 59 59 59 59 59 60 62 64 65 66 66 66 66 67 68 70 71 71 71 73 76 79 81 83 85 87 89 90 91 94 97 101 105 107 108 106 103 101 99 98 99 99 99 101 100 96 93 91 89 87 86 85 85 84 83 82 78 74 71 69 66 62 55 51 48 47 45 41 44 52 53 51 50 47 45 44 42 40 37 34 31 28 27 26
56 56 56 55 55 54 56 58 59 60 61 62 64 64 64 64 63 64 64 65 66 66 67 69 71 75 78 80 83 85 87 88 90 93 96 99 102 106 109 110 108 105 103 99 98 99 100 100 100 99 97 95 93 92 90 88 86 85 84 81 76 74 74 73 70 65 59 54 50 48 48 47 49 56 56 53 51 49 47 45 43 41 38 35 32 30 30 29
55 53 52 52 52 53 55 57 58 58 58 59 59 60 60 60 60 60 60 61 61 62 63 64 67 70 73 77 80 83 85 87 88 91 95 98 101 104 107 111 111 110 108 103 100 99 99 100 102 101 100 99 98 95 94 91 87 86 84 79 77 78 79 75 72 68 62 55 51 51 52 51 54 58 55 52 53 51 48 47 44 42 39 36 33 32 33 32
53 52 51 51 52 54 55 55 55 54 55 55 55 55 56 56 56 56 56 56 57 59 60 61 63 65 69 73 77 81 84 86 87 89 93 97 100 102 105 109 112 113 111 108 104 100 98 99 102 103 102 102 101 100 98 95 91 89 85 82 82 83 80 75 72 68 63 56 52 52 52 51 55 59 54 53 54 52 50 48 46 44 40 37 36 36 36 35
51 52 52 52 53 54 53 52 51 51 51 50 50 50 51 51 52 52 52 53 54 55 57 58 60 62 65 69 73 77 81 84 86 88 91 95 99 102 105 107 110 113 114 112 109 104 100 99 102 104 104 104 104 104 102 98 95 92 89 87 87 85 80 77 73 69 66 60 54 53 53 51 55 60 56 54 55 54 51 49 46 44 42 40 40 39 38 37
51 53 53 52 51 51 49 48 48 47 47 46 46 45 46 46 47 47 48 49 51 53 54 56 58 60 63 66 70 74 78 82 85 87 89 92 97 102 105 106 108 111 114 114 113 109 104 102 101 103 106 106 106 106 104 101 99 96 93 91 89 85 81 79 75 71 69 64 59 57 55 53 56 61 58 55 56 55 52 49 46 44 42 42 42 41 39 37
53 52 50 49 48 47 45 44 44 44 43 42 41 41 42 42 43 44 45 47 48 50 52 54 57 59 61 64 67 71 74 78 82 85 86 90 95 100 104 107 107 108 111 114 115 113 109 105 103 103 105 107 106 106 106 105 103 101 97 93 90 86 83 80 75 71 68 64 60 58 56 55 59 63 60 57 57 56 54 51 48 45 43 43 42 41 39 37
51 49 47 46 45 44 42 41 40 40 39 38 38 38 39 40 41 42 43 45 47 48 51 53 55 57 59 61 64 68 71 74 78 81 83 86 91 96 102 106 108 108 109 112 114 115 112 108 106 105 104 105 107 107 108 109 107 104 100 95 91 87 84 80 75 71 68 64 61 59 56 56 60 63 62 59 59 58 56 53 50 47 45 44 43 42 40 38
47 46 45 44 42 41 39 38 37 37 36 36 36 36 38 39 41 42 43 44 46 47 49 51 53 55 57 58 61 64 68 71 74 77 80 82 86 91 97 103 107 108 109 110 113 115 114 112 109 108 105 105 108 111 111 111 110 107 103 98 93 88 85 80 75 72 70 66 63 60 56 57 63 65 65 63 61 60 57 54 51 49 47 45 44 42 40 39
45 44 42 42 40 38 36 36 35 34 34 35 36 36 38 39 41 42 43 43 45 47 49 50 51 53 55 56 58 60 63 67 70 74 76 78 81 86 92 98 103 107 108 109 111 114 115 114 112 112 109 107 110 113 114 114 112 110 106 101 96 91 87 82 78 76 73 68 66 61 56 61 66 66 67 67 62 59 57 55 53 50 48 46 45 43 41 40
42 41 40 39 38 36 35 35 34 33 34 35 36 37 38 40 42 43 43 43 44 46 47 47 48 50 52 55 56 57 60 62 66 70 74 76 78 81 87 94 99 104 107 108 110 112 114 115 114 115 113 111 111 112 113 113 112 110 108 104 99 94 89 85 82 79 75 70 67 62 59 65 69 67 69 69 63 60 59 56 54 51 50 48 47 45 43 42
40 39 38 37 35 34 34 34 35 35 35 36 36 37 38 40 42 43 43 43 44 45 45 45 45 46 48 50 53 55 57 59 62 67 71 73 75 77 83 89 95 100 104 106 109 111 114 115 115 116 116 113 111 110 110 111 111 110 108 105 101 96 92 88 84 81 75 72 69 64 63 69 70 68 71 71 65 62 60 57 55 52 50 48 47 45 44 44
38 37 36 34 32 29 30 32 34 36 36 36 37 37 38 40 41 42 42 42 43 43 43 43 43 43 43 45 49 52 55 57 59 63 67 70 72 73 78 84 90 96 101 104 107 109 112 115 116 117 117 115 113 110 109 110 111 110 108 106 102 98 94 90 85 81 77 73 70 67 68 72 71 70 72 72 67 63 60 57 56 53 50 49 48 47 46 46
36 35 33 33 31 28 27 30 32 34 35 36 37 37 39 40 41 42 42 40 40 41 41 40 40 40 40 41 44 48 51 55 57 59 63 66 69 70 73 79 85 91 96 101 104 107 110 114 116 117 118 118 115 112 109 109 111 111 109 107 104 101 96 91 86 82 78 75 72 71 72 74 74 73 72 70 66 63 60 57 55 53 51 50 49 48 47 46
35 33 31 31 30 29 29 30 31 33 34 35 36 37 38 39 41 42 42 40 38 39 39 38 36 37 37 38 41 44 47 51 54 56 58 61 65 67 69 74 80 85 91 96 100 103 107 111 115 117 118 119 116 112 110 109 110 111 110 108 106 102 98 93 88 84 80 76 74 74 76 77 76 74 70 68 67 64 60 57 54 52 51 50 49 48 47 46
34 32 30 30 30 30 31 32 32 34 35 35 35 35 37 39 41 42 42 40 37 36 37 35 33 33 34 35 37 40 43 46 50 53 55 57 60 63 66 69 74 80 85 90 95 100 104 108 113 115 117 119 117 113 112 111 110 111 111 109 107 104 100 95 91 86 82 78 77 78 80 80 77 73 70 69 68 64 59 56 54 52 51 50 50 49 48 46
33 31 29 29 30 31 32 33 34 36 36 36 34 34 36 39 41 41 40 39 37 35 34 32 30 30 31 32 33 36 38 42 45 48 51 53 56 59 62 65 68 73 79 84 90 96 101 105 109 113 116 119 118 115 113 112 111 111 111 110 107 104 101 98 93 89 84 80 80 82 84 83 78 74 72 71 68 64 60 56 54 53 52 52 52 51 49 47
32 31 29 29 29 31 32 34 36 37 38 37 36 36 38 41 43 42 39 37 36 33 31 29 26 26 26 27 29 32 34 37 40 43 46 49 51 54 58 61 64 67 73 78 84 91 97 101 106 110 113 117 119 116 113 113 112 111 110 109 107 103 102 99 95 91 86 83 83 84 86 84 79 75 74 72 69 65 60 57 55 54 53 54 54 52 51 48
Wind_Direction
257 256 255 254 255 256 256 256 256 256 257 257 258 258 259 260 261 262 261 261 260 259 257 255 253 252 251 249 245 239 234 233 234 235 232 229 227 229 232 234 236 236 238 239 239 239 239 239 239 239 239 241 242 242 243 243 243 245 247 250 251 252 254 256 258 260 263 264 266 268 269 272 276 279 283 287 291 295 299 304 307 310 313 316 318 319 321 324
257 256 255 255 255 256 256 256 256 256 257 257 258 258 259 260 260 261 261 261 259 258 257 256 253 252 252 250 247 244 240 237 236 234 233 232 229 230 232 234 236 236 237 239 239 240 241 241 241 241 241 242 243 243 244 245 245 245 247 249 251 252 254 256 258 260 262 263 265 267 269 272 275 278 282 285 288 293 298 302 305 308 311 314 315 317 320 323
258 257 257 256 256 256 256 256 256 256 256 257 257 258 258 259 260 260 261 261 260 258 257 256 254 252 251 251 249 246 244 242 240 235 231 233 232 234 236 235 236 236 236 237 239 240 241 242 243 243 243 244 244 245 246 246 246 246 247 249 252 253 255 256 258 260 261 261 263 266 268 271 274 277 280 283 287 291 296 300 303 306 309 311 313 316 320 322
260 259 258 257 257 257 256 256 256 256 256 256 256 257 257 258 258 259 259 260 259 259 257 255 254 252 250 250 249 247 244 244 244 238 231 232 233 235 238 239 238 237 236 237 238 239 240 241 243 244 245 245 246 247 247 248 248 247 248 250 251 253 255 256 258 260 260 261 263 265 268 270 273 276 279 282 286 291 295 297 300 303 306 308 310 315 318 321
261 260 260 259 258 258 257 257 256 256 256 256 256 256 256 257 257 258 258 258 258 258 257 255 254 253 251 250 249 248 245 244 244 240 235 233 233 233 237 239 241 239 238 238 238 238 238 239 242 244 246 247 248 249 249 250 249 249 249 250 251 252 255 256 258 260 261 262 264 266 268 271 273 276 278 282 286 290 292 294 297 300 303 305 308 312 315 321
262 262 261 260 260 259 258 258 257 257 256 256 256 256 256 256 257 257 257 257 257 257 256 255 254 252 251 249 248 247 247 245 241 241 241 238 234 232 234 238 241 242 240 240 240 239 237 236 240 242 244 246 247 249 250 251 251 252 251 251 252 254 256 257 258 260 261 263 265 267 269 271 273 276 278 281 284 287 288 290 293 296 298 301 306 308 312 323
264 263 263 262 261 260 260 259 259 258 257 257 257 257 257 257 257 257 257 256 256 256 255 255 253 252 251 248 247 246 247 246 240 240 243 241 237 233 234 235 238 243 243 242 243 242 239 233 234 239 241 243 246 248 249 251 252 253 254 254 254 255 256 257 258 259 261 263 264 267 269 271 272 274 276 279 281 282 283 286 289 291 294 298 301 303 311 325
264 264 263 263 262 262 261 261 260 259 259 259 258 258 257 257 257 257 257 256 256 256 255 254 252 251 250 249 247 244 245 247 243 241 241 241 239 236 234 234 235 240 242 243 243 244 242 235 230 235 240 242 245 248 249 250 251 253 253 253 253 253 255 256 257 258 260 261 263 264 266 268 269 271 273 275 276 277 279 281 284 287 290 293 294 299 313 326
264 263 263 263 263 262 261 261 261 260 260 259 259 259 258 258 257 257 256 256 256 256 255 254 253 251 250 249 247 245 244 246 245 242 241 240 240 238 236 235 234 236 239 242 243 243 243 238 233 234 239 241 242 245 246 247 249 251 251 251 252 252 253 254 256 256 257 259 260 261 263 265 267 269 271 272 272 273 275 277 279 281 283 285 287 299 317 326
264 264 263 263 263 262 262 261 261 261 260 260 260 259 258 258 257 257 256 256 256 256 255 254 253 251 250 248 248 247 245 245 244 241 241 241 239 238 237 235 235 235 236 239 242 243 242 242 241 238 237 236 236 240 243 243 247 250 250 250 250 250 250 252 253 253 255 256 258 260 262 264 265 267 268 268 268 268 269 271 271 272 274 276 281 306 321 327
265 264 264 263 263 263 262 262 261 261 261 260 260 260 259 258 257 256 255 255 255 255 254 253 253 251 250 248 248 247 245 244 243 241 241 241 239 237 236 235 235 235 235 235 239 241 242 243 243 242 239 236 236 239 243 243 245 249 249 249 249 248 249 249 250 251 253 254 255 256 257 260 262 263 263 263 263 262 261 260 260 263 265 266 279 316 323 329
265 264 264 263 263 262 262 261 261 261 260 260 260 259 259 258 257 256 256 255 255 254 253 252 252 251 249 248 247 246 245 244 244 243 242 242 239 237 235 234 233 235 235 234 235 238 240 241 241 241 240 239 237 238 240 237 240 247 249 248 248 247 246 247 247 249 251 251 251 251 253 256 257 257 258 258 256 254 251 247 248 251 250 246 288 325 328 331
264 264 264 263 262 262 261 261 260 260 259 259 259 259 258 258 257 256 255 255 255 255 253 252 251 250 249 248 248 246 244 244 244 243 242 242 240 237 235 233 232 234 235 233 232 234 236 238 240 240 240 241 239 238 235 231 235 244 247 246 246 243 241 241 242 244 246 245 245 247 247 247 248 247 248 249 248 246 240 234 231 228 215 181 333 330 338 334
265 264 264 264 263 262 262 261 260 260 259 259 258 258 257 257 257 256 255 255 254 254 253 253 251 250 249 248 247 246 244 243 242 242 242 241 241 238 236 234 232 232 234 234 232 232 233 236 238 239 240 240 240 240 236 231 232 239 244 244 243 240 236 235 233 234 236 238 239 237 234 234 235 233 236 240 240 235 226 215 204 190 166 138 327 335 346 337
265 264 264 264 263 263 262 261 261 260 259 259 258 258 257 257 256 255 255 254 254 253 253 252 251 250 249 248 247 246 245 243 242 242 241 241 241 239 237 236 234 232 233 234 233 232 232 233 235 237 238 237 238 241 240 236 232 235 241 243 243 240 235 233 228 223 224 225 226 225 224 224 220 217 224 231 229 221 208 192 177 162 147 150 293 345 352 340
265 264 264 264 263 263 262 261 261 260 259 259 258 258 257 256 255 255 254 254 254 253 252 252 251 250 249 248 246 246 246 245 243 241 241 240 240 240 239 237 235 233 232 233 233 232 231 231 232 234 236 236 236 239 240 240 236 233 237 240 241 238 234 234 229 219 216 215 216 219 220 219 214 207 209 218 217 207 193 175 161 153 150 175 275 2 355 344
266 265 265 264 263 263 262 262 261 260 259 259 258 258 257 256 255 254 253 253 253 253 252 251 251 250 249 248 246 245 245 245 244 242 241 240 240 239 239 238 236 234 232 232 233 233 232 231 231 232 234 235 235 236 238 240 237 232 232 234 235 235 233 234 232 223 218 214 214 219 220 218 217 206 195 202 204 194 179 166 157 155 157 183 235 38 0 350
266 266 265 264 264 263 263 262 262 261 260 259 258 258 257 256 255 254 253 252 252 252 252 251 250 250 249 248 247 245 244 244 244 243 241 241 240 239 239 238 237 236 233 233 234 234 233 232 231 231 233 235 235 234 234 236 236 233 231 231 233 235 235 237 237 232 227 219 217 222 223 222 222 208 185 183 186 181 173 167 165 162 160 181 198 146 348 353
267 266 265 265 264 264 263 263 262 262 261 260 259 258 257 257 256 254 253 252 252 251 251 250 250 249 249 248 247 245 243 243 243 243 242 241 240 239 238 238 237 237 235 234 234 234 234 232 231 232 234 234 232 230 230 234 236 235 234 232 233 236 237 240 242 241 239 231 224 226 226 228 228 210 188 177 174 180 181 179 181 174 167 182 192 192 257 330
268 267 266 265 264 264 263 263 262 262 262 261 260 259 258 257 256 255 253 252 251 251 250 250 249 249 248 248 247 246 244 242 242 243 243 242 241 239 238 237 237 237 236 236 235 233 233 232 232 234 234 232 229 229 229 233 235 236 237 234 233 234 235 237 240 240 241 236 230 229 227 229 229 218 201 184 181 191 192 194 203 194 180 187 197 196 215 274
269 268 267 266 265 264 264 263 262 262 261 261 261 260 259 258 257 256 254 252 251 251 250 249 249 248 248 247 247 246 245 243 241 241 242 242 241 239 238 237 236 235 235 235 234 232 232 233 236 236 234 231 230 229 229 231 234 236 237 236 234 232 232 232 234 236 238 236 231 228 226 229 230 226 214 203 204 202 194 206 218 208 193 195 203 203 205 239
269 269 268 267 266 266 265 264 263 262 261 261 261 261 260 259 258 257 256 254 252 251 251 250 249 248 247 247 247 246 246 244 242 241 241 241 241 240 238 237 236 235 234 234 233 232 232 234 239 237 232 230 230 229 228 229 232 233 235 236 235 233 231 229 229 232 235 237 233 227 225 229 233 232 224 222 224 213 197 211 223 216 205 204 208 213 211 229
270 270 269 269 268 267 267 265 264 263 262 261 261 261 260 260 260 259 258 256 253 251 250 250 249 248 247 247 246 246 245 245 243 241 240 240 241 240 239 237 236 235 233 233 233 232 231 234 238 236 230 229 229 229 229 229 230 231 232 235 235 233 231 228 226 228 232 236 235 229 227 230 233 232 228 226 226 218 206 210 219 217 213 212 212 217 221 231
270 270 270 269 269 268 268 267 266 265 263 262 261 260 260 260 259 259 258 258 256 254 251 250 249 249 248 247 246 245 245 244 244 242 241 240 240 239 238 237 236 235 233 232 231 230 230 233 236 234 230 230 229 229 229 228 229 230 230 232 233 233 231 227 225 225 228 234 235 231 229 231 230 227 229 229 226 224 219 216 218 218 219 220 217 219 227 235
271 270 270 269 269 268 268 267 267 266 265 264 263 261 260 260 259 258 258 257 257 256 254 251 249 249 248 248 247 245 244 243 243 242 241 240 239 238 238 237 236 235 233 231 230 229 229 233 235 232 230 230 229 229 230 229 229 229 229 231 232 233 230 227 224 222 225 231 233 231 228 230 228 226 232 234 229 230 230 228 224 218 220 222 219 222 228 237
272 271 271 270 269 269 269 268 268 267 266 266 265 263 262 261 260 259 258 257 256 256 255 254 251 250 248 248 248 246 245 243 242 242 241 241 239 238 237 237 236 235 233 232 229 228 229 233 234 231 229 230 229 228 229 230 229 229 230 230 231 232 231 228 224 221 223 227 232 230 225 228 229 228 234 236 233 234 237 237 231 223 226 225 223 226 229 236
274 273 272 271 270 270 270 269 269 268 268 267 266 265 264 263 262 261 260 258 257 256 255 254 252 251 249 248 247 246 246 244 242 241 240 240 240 238 237 236 236 235 233 232 230 227 229 233 233 231 229 229 229 229 229 229 229 229 231 230 230 232 233 230 225 221 221 224 229 229 226 228 229 230 234 234 233 235 237 238 233 228 233 232 230 231 230 235
276 274 273 272 271 271 271 270 270 270 269 268 268 267 266 265 264 263 262 260 259 257 255 254 252 250 249 248 246 245 245 244 243 241 240 239 239 239 237 235 235 234 234 232 230 227 229 231 231 229 229 228 228 228 228 227 227 228 229 227 228 231 232 231 227 221 220 223 228 230 229 229 230 231 232 231 232 234 235 236 233 231 234 234 234 234 232 235
277 276 275 274 273 272 272 271 271 271 270 270 269 269 268 267 265 264 263 262 260 258 257 255 253 250 248 247 246 245 243 243 243 242 241 239 238 238 238 236 234 233 234 233 230 228 228 230 229 228 227 227 227 228 227 226 226 228 228 225 226 229 230 231 229 223 220 222 226 230 230 229 230 233 233 230 230 231 233 237 237 236 235 232 232 233 232 234
278 277 276 276 275 274 273 272 272 271 271 271 270 270 269 267 266 265 264 262 261 260 258 256 254 251 248 246 245 245 243 241 240 241 241 240 238 237 237 236 235 233 233 233 231 228 229 229 228 227 227 227 227 227 226 225 226 228 227 225 226 228 229 230 229 225 221 218 223 228 229 227 229 232 232 228 225 229 236 241 241 240 237 233 232 232 232 236
279 279 278 277 277 276 274 273 272 272 272 272 271 271 270 268 267 265 264 263 262 260 258 256 254 252 249 247 244 243 243 241 239 238 238 239 239 237 236 235 235 233 232 232 231 229 229 230 228 226 226 227 227 227 226 226 226 228 227 225 226 228 229 229 228 227 222 216 219 225 226 226 229 230 228 226 226 231 239 240 240 240 238 236 235 235 238 241
281 280 280 279 278 277 277 276 275 274 274 273 272 271 269 268 267 266 264 263 261 260 258 256 255 253 250 248 245 243 242 240 239 237 236 236 237 238 236 235 234 233 231 230 230 229 230 230 228 225 225 226 227 227 226 226 227 228 228 226 226 227 229 229 229 228 222 215 217 223 224 224 228 229 226 226 229 232 235 236 238 239 238 237 236 235 238 239
283 282 281 280 280 279 279 279 279 278 277 275 273 272 270 269 267 266 265 263 261 259 258 256 255 253 251 249 246 244 241 239 238 237 235 234 234 236 236 235 233 232 231 230 229 229 229 229 228 225 224 225 226 226 226 226 227 228 229 227 226 227 228 229 228 227 221 216 216 220 222 221 226 230 228 227 229 228 230 233 236 238 238 238 236 234 234 234
285 284 283 283 283 283 282 282 281 280 279 278 277 275 273 272 270 267 265 264 262 259 257 256 254 252 251 249 246 244 241 238 237 236 235 233 232 232 234 235 234 232 230 229 228 228 227 228 228 226 225 225 226 226 225 225 226 227 227 226 225 224 226 227 226 224 219 216 215 218 219 217 223 230 227 226 228 227 228 231 233 236 238 237 236 233 231 230
287 286 286 285 285 285 286 285 284 283 282 281 280 278 276 274 272 269 267 265 262 260 257 254 253 251 250 248 246 244 242 238 235 234 234 233 231 230 231 232 233 233 231 228 227 227 226 227 227 226 224 225 225 226 225 224 225 225 226 226 224 223 224 224 224 222 217 214 213 215 216 212 220 228 225 225 228 228 228 230 231 234 236 236 235 232 230 229
289 288 288 288 288 288 289 288 287 286 284 283 281 280 278 276 273 271 269 267 264 261 257 254 251 250 249 247 245 243 241 239 235 232 232 232 231 229 228 229 230 232 231 228 226 226 226 226 226 225 224 224 224 225 225 224 224 225 226 226 225 224 223 222 221 221 218 214 213 214 212 208 217 226 224 225 229 228 227 229 229 231 233 233 232 230 229 230
293 292 292 291 292 292 290 289 288 287 285 283 282 281 279 277 275 272 270 268 266 263 259 255 251 249 247 246 244 243 241 238 235 232 230 230 230 229 227 227 227 229 230 229 226 224 224 224 225 225 224 223 224 224 225 224 223 224 224 224 224 224 223 221 220 219 217 213 211 213 212 209 218 226 224 224 229 228 227 227 227 228 229 229 228 228 229 230
296 296 296 296 296 294 292 290 289 288 286 285 283 282 280 279 277 274 272 269 266 263 260 257 253 249 246 244 243 242 240 238 235 232 229 228 228 228 227 225 225 226 228 229 227 224 223 223 224 224 223 223 223 223 224 223 222 222 222 222 222 223 222 220 220 219 217 213 211 213 213 211 220 228 224 223 227 228 227 227 226 226 225 225 225 225 228 231
299 300 300 300 298 295 293 292 291 289 287 286 284 283 282 281 279 277 274 271 268 265 261 258 254 250 247 245 243 241 240 238 236 232 229 227 227 227 227 225 224 224 225 227 227 225 222 221 222 223 222 222 222 222 223 223 222 221 220 220 221 221 221 219 217 216 215 212 209 212 212 211 220 228 225 222 226 228 228 228 227 227 225 224 224 225 228 231
302 302 302 300 298 295 295 294 292 289 287 286 285 284 284 283 281 279 276 272 269 266 262 259 255 251 247 245 243 241 239 238 236 234 230 227 225 226 226 225 223 222 222 224 226 225 223 221 221 222 222 221 221 221 222 223 222 221 220 219 220 220 220 219 217 215 214 210 208 210 210 210 220 228 226 223 226 228 228 228 226 226 225 224 225 227 229 231
304 303 302 300 297 296 295 294 292 290 288 288 288 289 288 287 285 282 279 274 270 267 263 260 257 253 249 246 243 242 240 239 237 235 232 228 225 224 225 225 224 222 221 221 223 224 223 221 220 221 221 221 220 220 221 222 222 222 220 219 219 218 218 218 216 215 214 211 209 211 210 210 219 228 227 224 226 228 228 227 226 224 224 224 226 227 229 231
305 304 302 300 299 298 297 295 293 292 291 292 294 295 295 293 290 286 282 277 273 269 265 262 259 256 252 248 245 243 241 239 238 236 234 230 226 224 224 225 224 222 220 219 220 222 223 221 220 220 221 220 220 220 220 221 222 222 221 219 218 218 218 217 214 213 213 211 209 210 210 212 218 226 228 224 224 226 226 225 225 223 222 223 224 226 227 229
306 305 304 302 301 301 299 296 295 294 295 296 298 299 299 298 294 290 285 280 275 271 267 264 261 258 254 251 247 244 242 240 238 237 235 232 228 225 224 224 224 223 221 219 218 220 221 221 220 220 220 219 219 219 219 220 220 221 221 219 217 216 217 216 214 212 212 209 209 209 209 213 219 224 228 226 222 224 225 224 224 223 223 223 224 225 225 227
308 307 306 305 304 303 300 298 297 297 298 300 301 302 302 301 298 293 288 283 278 273 268 265 262 259 256 253 249 245 242 240 239 237 236 233 229 226 224 224 224 224 222 219 217 218 219 220 220 220 219 218 219 219 218 219 219 220 220 219 217 216 215 214 212 212 210 208 208 207 207 214 219 222 227 228 224 223 224 223 223 222 223 223 224 224 224 225
310 310 309 308 307 305 303 301 301 301 302 302 302 303 304 303 301 297 292 288 282 277 272 268 263 259 257 254 251 247 243 240 237 236 235 233 229 226 224 223 223 223 222 220 218 216 217 218 219 219 219 218 219 219 219 219 219 219 219 218 217 215 214 212 211 211 209 206 206 204 206 215 219 219 226 229 225 224 224 224 224 223 223 223 223 224 224 225
313 312 311 310 309 308 308 307 307 305 304 304 304 305 306 306 304 301 298 295 289 284 280 275 268 261 256 253 250 247 244 241 237 235 234 233 230 226 223 222 221 221 221 221 219 216 216 217 218 219 219 219 219 219 219 219 219 219 219 218 217 215 214 212 211 210 208 206 205 203 206 216 218 218 225 229 226 224 224 225 225 224 224 226 226 226 226 227
315 314 312 311 310 310 312 311 308 307 307 308 308 309 309 309 307 304 301 299 295 290 286 280 274 266 259 253 249 246 244 241 238 235 234 233 231 227 224 222 221 220 220 219 219 216 215 216 216 218 219 219 218 218 218 219 218 218 218 218 217 215 214 212 210 209 207 205 204 203 207 216 217 217 222 227 227 225 224 225 226 225 225 226 227 227 228 230
317 315 314 312 312 313 314 311 309 311 313 314 314 313 313 312 311 308 305 302 300 294 288 282 276 270 263 255 249 245 242 241 239 236 234 233 232 229 225 222 221 220 219 218 218 216 215 214 215 216 218 219 218 217 217 218 218 218 217 217 217 215 214 212 210 208 206 204 203 204 210 216 217 216 220 225 227 225 224 224 225 225 225 226 227 229 230 231
318 317 315 314 315 317 319 318 317 318 319 319 318 316 315 316 316 313 309 306 304 298 290 284 278 272 264 256 250 245 241 239 238 237 235 232 231 229 226 223 221 220 219 217 216 216 214 214 214 215 217 219 218 216 216 217 217 217 217 216 216 215 213 211 210 208 206 203 202 205 212 216 217 215 218 223 226 225 224 223 224 225 225 226 227 229 231 232
319 318 317 317 317 319 322 323 323 323 322 321 319 318 319 322 322 318 315 311 307 301 293 287 280 273 264 257 250 246 242 239 237 236 235 232 230 228 226 224 221 220 219 217 215 214 214 213 214 214 216 218 219 217 215 216 216 216 216 216 215 214 213 211 209 207 205 203 203 206 213 216 216 214 216 220 224 225 223 223 223 224 226 226 227 228 230 231
321 319 318 318 318 320 324 326 327 326 325 324 323 322 326 328 326 322 320 316 311 304 297 290 282 273 264 257 251 245 241 239 236 234 233 232 229 227 226 224 222 220 219 217 215 213 213 212 213 213 214 217 218 217 215 215 216 216 215 215 214 214 212 211 209 206 204 202 204 208 214 216 214 213 215 218 221 222 222 221 222 223 225 226 227 227 228 229
323 321 319 318 319 321 325 328 328 328 328 328 329 330 332 333 329 325 324 322 315 307 301 294 284 273 264 256 250 244 239 236 234 231 231 230 228 226 224 223 221 219 218 217 215 213 212 211 212 212 213 216 218 217 215 214 215 215 215 215 214 213 212 211 209 206 203 202 204 209 215 217 213 212 215 217 219 220 220 220 220 221 223 225 226 227 228 228
Height
10926 10927 10928 10929 10930 10931 10932 10933 10934 10935 10935 10936 10937 10938 10940 10941 10942 10943 10944 10945 10946 10947 10947 10948 10949 10950 10951 10951 10952 10954 10955 10956 10956 10957 10959 10961 10961 10962 10962 10962 10964 10966 10968 10970 10971 10973 10975 10977 10979 10980 10982 10983 10984 10985 10986 10988 10989 10991 10992 10993 10995 10996 10997 10998 10999 11000 11001 11002 11003 11003 11004 11005 11005 11006 11007 11007 11007 11008 11008 11008 11008 11007 11007 11006 11005 11003 11002 11000
10921 10922 10923 10924 10925 10926 10927 10928 10929 10930 10931 10932 10933 10934 10935 10936 10938 10939 10940 10941 10942 10943 10944 10944 10945 10947 10947 10948 10949 10950 10951 10953 10953 10954 10956 10958 10959 10959 10959 10960 10961 10963 10965 10966 10968 10970 10972 10973 10975 10977 10979 10980 10981 10983 10984 10985 10986 10988 10990 10991 10992 10993 10994 10996 10997 10998 10999 10999 11000 11001 11002 11003 11004 11004 11005 11005 11006 11006 11006 11006 11006 11006 11006 11005 11004 11002 11001 10999
10917 10917 10918 10919 10920 10921 10922 10923 10924 10925 10926 10927 10929 10930 10931 10932 10933 10935 10936 10937 10938 10939 10940 10940 10941 10943 10944 10944 10945 10946 10948 10949 10949 10950 10953 10955 10956 10956 10956 10957 10958 10960 10961 10962 10964 10966 10968 10970 10972 10973 10975 10977 10978 10980 10981 10982 10984 10985 10987 10989 10990 10990 10992 10993 10994 10995 10996 10997 10998 10999 11000 11001 11002 11002 11003 11004 11004 11005 11005 11005 11004 11004 11004 11004 11003 11001 11000 10999
10912 10912 10913 10914 10915 10916 10917 10918 10919 10920 10921 10922 10924 10925 10926 10927 10928 10930 10931 10932 10933 10934 10936 10937 10938 10938 10940 10941 10941 10942 10944 10946 10946 10946 10950 10952 10953 10954 10954 10955 10956 10956 10957 10959 10960 10962 10965 10967 10968 10969 10972 10973 10975 10977 10978 10979 10980 10982 10984 10986 10987 10988 10989 10990 10992 10992 10992 10994 10996 10997 10998 10999 11000 11000 11001 11002 11003 11003 11003 11003 11003 11003 11003 11002 11001 11000 10999 10998
10906 10907 10907 10908 10909 10910 10911 10912 10913 10914 10915 10917 10918 10920 10921 10922 10923 10925 10926 10927 10928 10929 10930 10932 10933 10934 10935 10936 10937 10938 10939 10941 10942 10943 10946 10949 10950 10951 10951 10952 10953 10953 10954 10956 10957 10959 10961 10963 10964 10966 10969 10970 10972 10973 10974 10975 10976 10979 10981 10982 10984 10985 10986 10987 10989 10989 10989 10992 10993 10994 10996 10997 10997 10998 10999 11000 11001 11001 11001 11001 11001 11001 11001 11001 11000 11000 10999 10998
10901 10902 10902 10903 10904 10904 10905 10906 10907 10908 10910 10911 10912 10914 10915 10916 10918 10919 10920 10922 10923 10924 10925 10926 10928 10930 10930 10932 10933 10934 10935 10936 10938 10941 10942 10943 10945 10947 10948 10949 10950 10951 10952 10953 10954 10955 10958 10961 10962 10963 10965 10967 10968 10969 10970 10971 10973 10976 10977 10979 10982 10983 10983 10984 10985 10985 10987 10989 10990 10992 10993 10994 10995 10996 10997 10998 10999 10999 10999 10999 10999 11000 11000 10999 10999 10999 10999 10998
10896 10896 10896 10897 10898 10899 10899 10900 10901 10902 10903 10905 10905 10907 10908 10910 10911 10913 10914 10916 10917 10918 10919 10920 10922 10924 10925 10926 10927 10929 10930 10931 10934 10938 10937 10938 10941 10943 10945 10946 10948 10948 10949 10950 10951 10952 10954 10957 10959 10960 10961 10963 10965 10966 10967 10968 10970 10972 10974 10976 10978 10979 10979 10979 10981 10982 10984 10985 10987 10989 10989 10990 10991 10992 10994 10995 10996 10997 10997 10997 10998 10998 10998 10998 10998 10998 10998 10997
10890 10890 10890 10890 10891 10892 10893 10893 10894 10895 10897 10898 10898 10899 10901 10903 10904 10906 10908 10909 10911 10912 10913 10914 10916 10918 10919 10921 10922 10924 10926 10927 10930 10933 10933 10933 10936 10939 10941 10942 10944 10945 10946 10947 10948 10949 10950 10954 10957 10958 10959 10962 10963 10963 10963 10965 10967 10968 10969 10971 10973 10975 10975 10975 10978 10979 10980 10981 10983 10985 10986 10987 10988 10989 10991 10993 10993 10994 10995 10996 10996 10996 10997 10997 10997 10997 10997 10996
10883 10884 10884 10884 10884 10885 10886 10886 10887 10888 10890 10891 10891 10892 10894 10896 10897 10899 10901 10903 10904 10905 10906 10907 10909 10911 10913 10915 10917 10919 10922 10923 10924 10927 10928 10928 10930 10933 10936 10938 10940 10942 10943 10944 10945 10946 10947 10951 10955 10956 10958 10960 10960 10959 10960 10962 10964 10964 10965 10966 10969 10971 10971 10972 10974 10975 10976 10977 10979 10981 10982 10983 10984 10986 10988 10990 10991 10991 10992 10993 10994 10995 10995 10995 10996 10996 10996 10995
10877 10877 10877 10877 10877 10878 10879 10879 10880 10881 10882 10884 10884 10884 10886 10888 10890 10892 10894 10896 10897 10898 10899 10900 10902 10904 10907 10909 10911 10914 10917 10917 10918 10920 10922 10922 10924 10928 10931 10933 10935 10937 10939 10941 10941 10942 10945 10949 10951 10953 10954 10955 10956 10956 10957 10960 10962 10960 10961 10963 10965 10967 10968 10968 10970 10971 10972 10974 10976 10978 10978 10980 10981 10984 10985 10987 10988 10988 10990 10991 10992 10993 10993 10994 10995 10995 10995 10994
10870 10870 10870 10870 10871 10871 10872 10872 10873 10874 10875 10876 10877 10877 10878 10880 10882 10885 10887 10889 10890 10890 10891 10893 10895 10897 10900 10903 10906 10908 10910 10911 10912 10915 10916 10917 10918 10921 10925 10928 10930 10932 10935 10937 10938 10940 10943 10945 10947 10948 10950 10952 10953 10954 10955 10959 10959 10957 10958 10960 10961 10963 10964 10965 10966 10967 10969 10971 10974 10975 10975 10977 10978 10981 10982 10983 10985 10986 10987 10989 10990 10991 10992 10993 10993 10994 10994 10994
10864 10863 10862 10863 10864 10864 10864 10865 10866 10866 10868 10869 10869 10870 10871 10872 10874 10877 10880 10882 10882 10882 10884 10887 10888 10890 10892 10896 10899 10901 10903 10906 10907 10909 10910 10911 10912 10915 10919 10922 10925 10927 10929 10932 10934 10937 10938 10940 10942 10944 10946 10948 10950 10952 10953 10956 10956 10955 10956 10957 10958 10960 10961 10963 10963 10964 10966 10969 10970 10971 10973 10974 10976 10978 10979 10980 10982 10983 10985 10987 10988 10989 10991 10992 10992 10993 10993 10993
10857 10856 10855 10855 10856 10857 10857 10857 10858 10859 10860 10861 10861 10861 10863 10864 10866 10869 10872 10874 10874 10875 10877 10879 10880 10882 10885 10889 10891 10893 10896 10899 10901 10902 10903 10904 10906 10908 10912 10916 10920 10921 10923 10926 10930 10932 10934 10936 10938 10940 10943 10944 10947 10948 10950 10953 10954 10953 10953 10954 10955 10957 10959 10960 10961 10962 10964 10965 10967 10969 10971 10972 10973 10975 10976 10977 10979 10980 10983 10985 10986 10988 10989 10990 10991 10992 10992 10992
10849 10848 10847 10847 10847 10848 10848 10849 10849 10850 10852 10853 10853 10853 10855 10856 10858 10861 10864 10866 10866 10868 10870 10871 10872 10875 10878 10881 10884 10886 10888 10891 10893 10894 10896 10898 10899 10902 10906 10910 10914 10916 10918 10921 10925 10928 10930 10932 10934 10937 10939 10940 10942 10944 10947 10950 10952 10951 10951 10952 10952 10954 10956 10958 10959 10961 10962 10963 10965 10967 10968 10969 10970 10972 10973 10975 10976 10978 10980 10982 10984 10986 10988 10989 10990 10991 10991 10991
10840 10840 10839 10838 10838 10838 10839 10839 10840 10841 10843 10844 10844 10845 10846 10847 10849 10853 10856 10857 10858 10860 10861 10862 10864 10867 10870 10873 10876 10878 10879 10882 10885 10887 10889 10891 10893 10896 10899 10903 10907 10911 10913 10915 10919 10922 10925 10928 10930 10932 10933 10936 10939 10941 10943 10946 10948 10949 10949 10949 10950 10952 10954 10955 10957 10960 10961 10962 10964 10965 10966 10967 10969 10970 10971 10973 10975 10977 10979 10981 10983 10985 10986 10988 10989 10990 10990 10991
10830 10830 10829 10829 10829 10828 10828 10829 10830 10831 10832 10834 10834 10835 10836 10838 10840 10844 10847 10848 10849 10851 10853 10854 10855 10858 10861 10864 10868 10871 10872 10874 10877 10879 10882 10884 10886 10889 10892 10896 10900 10904 10907 10909 10912 10916 10920 10922 10924 10927 10929 10933 10935 10936 10938 10941 10944 10946 10946 10946 10947 10948 10951 10952 10955 10958 10960 10961 10962 10963 10965 10967 10968 10969 10970 10972 10974 10976 10977 10979 10981 10983 10985 10987 10988 10989 10989 10990
10821 10820 10820 10819 10818 10818 10817 10818 10819 10820 10821 10823 10824 10824 10825 10827 10829 10834 10838 10839 10840 10842 10843 10845 10847 10849 10852 10855 10859 10862 10864 10865 10868 10872 10875 10876 10879 10881 10885 10889 10893 10897 10901 10904 10907 10911 10914 10917 10919 10922 10925 10928 10930 10932 10935 10935 10937 10940 10941 10941 10942 10945 10949 10950 10952 10956 10958 10959 10961 10962 10963 10965 10967 10967 10969 10971 10973 10975 10977 10978 10980 10982 10984 10986 10987 10988 10988 10989
10810 10810 10810 10809 10808 10807 10807 10808 10808 10808 10810 10811 10812 10813 10814 10815 10817 10822 10828 10830 10830 10832 10833 10835 10837 10839 10843 10846 10848 10852 10855 10857 10859 10863 10866 10868 10871 10874 10878 10882 10886 10891 10895 10899 10902 10904 10908 10911 10913 10917 10920 10923 10925 10927 10928 10927 10930 10934 10936 10938 10941 10944 10947 10948 10950 10954 10956 10958 10960 10960 10962 10964 10965 10967 10968 10971 10973 10975 10976 10977 10979 10980 10982 10984 10986 10986 10988 10989
10800 10800 10800 10799 10798 10797 10797 10797 10797 10798 10798 10798 10799 10800 10802 10802 10804 10809 10815 10818 10819 10821 10822 10824 10827 10830 10832 10835 10838 10841 10846 10849 10851 10854 10857 10859 10862 10867 10870 10875 10879 10883 10888 10892 10895 10897 10900 10903 10908 10913 10914 10913 10914 10917 10920 10921 10925 10929 10932 10936 10940 10943 10945 10946 10948 10952 10954 10957 10959 10959 10961 10962 10964 10966 10968 10970 10972 10974 10975 10977 10978 10979 10981 10983 10984 10985 10987 10988
10789 10789 10789 10788 10787 10787 10786 10786 10787 10787 10786 10786 10786 10787 10789 10790 10791 10794 10801 10806 10808 10809 10810 10813 10816 10819 10822 10824 10827 10830 10835 10840 10843 10845 10848 10849 10853 10858 10862 10866 10872 10876 10882 10884 10886 10890 10892 10898 10904 10904 10900 10902 10907 10913 10916 10918 10921 10925 10929 10934 10937 10940 10943 10944 10946 10949 10951 10954 10956 10958 10960 10961 10962 10965 10967 10968 10970 10972 10974 10976 10977 10978 10979 10981 10983 10984 10986 10987
10777 10777 10777 10777 10776 10776 10776 10776 10776 10776 10775 10774 10774 10774 10775 10778 10779 10780 10785 10792 10796 10796 10797 10800 10804 10807 10810 10813 10816 10820 10824 10830 10835 10837 10838 10839 10843 10848 10852 10857 10863 10869 10873 10874 10878 10883 10888 10895 10895 10889 10890 10899 10904 10908 10912 10915 10917 10921 10925 10929 10933 10937 10939 10941 10944 10945 10947 10950 10953 10956 10958 10959 10960 10963 10965 10966 10968 10970 10973 10975 10976 10977 10978 10980 10982 10983 10985 10986
10765 10764 10764 10765 10765 10765 10764 10764 10764 10765 10765 10763 10763 10762 10763 10765 10766 10767 10770 10776 10782 10785 10785 10787 10791 10795 10798 10801 10804 10808 10812 10817 10823 10827 10828 10829 10832 10838 10843 10848 10854 10859 10861 10865 10873 10877 10884 10889 10879 10875 10887 10895 10898 10903 10907 10909 10912 10916 10921 10924 10928 10931 10934 10938 10941 10942 10944 10946 10949 10954 10956 10957 10959 10961 10963 10964 10966 10969 10972 10973 10975 10976 10977 10979 10980 10981 10983 10985
10755 10752 10752 10753 10753 10753 10751 10751 10751 10752 10753 10753 10752 10751 10751 10753 10754 10755 10757 10759 10766 10772 10773 10774 10778 10782 10786 10788 10792 10796 10800 10805 10810 10815 10818 10820 10823 10827 10834 10839 10843 10848 10853 10860 10866 10869 10878 10875 10860 10866 10884 10888 10892 10898 10901 10904 10907 10912 10916 10918 10922 10924 10928 10933 10937 10940 10941 10942 10946 10951 10953 10955 10957 10959 10960 10962 10965 10967 10969 10971 10973 10975 10976 10977 10978 10980 10982 10984
10744 10741 10740 10741 10741 10740 10738 10737 10737 10738 10740 10741 10740 10739 10740 10740 10741 10742 10744 10745 10749 10754 10759 10762 10765 10769 10772 10775 10779 10783 10786 10791 10796 10802 10806 10809 10812 10816 10823 10828 10832 10838 10845 10851 10855 10860 10866 10857 10848 10866 10881 10880 10886 10891 10894 10899 10902 10906 10910 10912 10914 10916 10921 10928 10933 10937 10938 10939 10942 10947 10951 10953 10956 10956 10956 10959 10963 10965 10967 10969 10971 10973 10975 10976 10977 10978 10980 10982
10732 10730 10728 10728 10728 10726 10724 10723 10722 10724 10726 10726 10726 10726 10727 10727 10727 10728 10730 10732 10734 10737 10741 10748 10754 10756 10759 10762 10765 10767 10772 10777 10782 10787 10792 10796 10801 10806 10811 10816 10822 10829 10834 10839 10844 10850 10854 10845 10845 10864 10872 10872 10880 10885 10888 10893 10895 10900 10905 10905 10905 10908 10915 10922 10929 10933 10935 10936 10938 10944 10949 10951 10953 10953 10954 10958 10961 10962 10964 10966 10969 10972 10973 10974 10975 10976 10978 10980
10720 10718 10716 10715 10714 10713 10711 10709 10708 10709 10711 10711 10711 10712 10712 10712 10713 10713 10715 10718 10719 10722 10725 10731 10739 10742 10745 10751 10749 10750 10757 10762 10767 10773 10778 10782 10788 10794 10799 10805 10811 10817 10822 10827 10834 10841 10844 10837 10841 10857 10863 10865 10872 10878 10883 10886 10890 10896 10896 10894 10897 10902 10909 10916 10923 10929 10932 10933 10935 10941 10946 10947 10950 10951 10952 10956 10958 10959 10962 10964 10968 10970 10970 10972 10974 10975 10976 10978
10708 10706 10703 10702 10701 10699 10698 10695 10694 10694 10695 10695 10696 10697 10698 10698 10698 10697 10700 10701 10703 10707 10709 10714 10721 10725 10731 10735 10733 10736 10741 10746 10753 10760 10763 10768 10774 10779 10787 10793 10799 10805 10809 10815 10824 10836 10836 10829 10836 10850 10855 10858 10866 10872 10874 10875 10882 10886 10882 10885 10893 10897 10903 10909 10917 10924 10928 10928 10930 10937 10942 10944 10948 10949 10950 10954 10955 10957 10959 10961 10965 10967 10968 10970 10972 10973 10975 10976
10695 10693 10691 10689 10688 10687 10685 10682 10680 10679 10679 10680 10680 10681 10683 10684 10683 10683 10683 10684 10687 10690 10692 10697 10702 10709 10715 10715 10715 10722 10727 10731 10739 10744 10749 10755 10760 10765 10772 10780 10786 10792 10796 10804 10817 10827 10823 10818 10828 10840 10844 10851 10858 10859 10859 10864 10873 10871 10869 10881 10889 10890 10896 10902 10910 10919 10922 10924 10929 10934 10939 10942 10946 10946 10948 10952 10953 10954 10955 10957 10961 10964 10966 10969 10970 10971 10973 10974
10682 10680 10678 10676 10675 10674 10673 10669 10666 10665 10664 10665 10665 10665 10666 10667 10667 10668 10668 10668 10671 10672 10675 10680 10684 10690 10695 10694 10698 10706 10711 10719 10725 10729 10735 10741 10745 10751 10756 10764 10773 10779 10784 10794 10806 10813 10810 10809 10818 10827 10836 10845 10845 10843 10847 10858 10863 10858 10862 10877 10880 10881 10888 10895 10905 10913 10917 10923 10929 10931 10934 10939 10941 10942 10946 10950 10950 10948 10949 10953 10957 10961 10964 10966 10968 10969 10971 10972
10670 10667 10665 10663 10661 10660 10659 10657 10654 10651 10650 10650 10650 10649 10649 10650 10650 10651 10652 10651 10653 10656 10660 10662 10663 10669 10674 10677 10683 10688 10693 10703 10710 10714 10721 10725 10730 10737 10741 10748 10758 10767 10774 10782 10792 10800 10799 10799 10809 10821 10830 10834 10831 10832 10840 10849 10850 10847 10857 10870 10873 10876 10883 10889 10899 10906 10914 10924 10926 10926 10930 10934 10936 10939 10944 10946 10943 10942 10946 10951 10954 10957 10961 10963 10965 10967 10969 10970
10659 10655 10653 10650 10648 10645 10644 10643 10641 10640 10637 10635 10635 10634 10632 10633 10633 10634 10635 10635 10637 10641 10642 10644 10646 10651 10655 10659 10666 10670 10675 10685 10693 10699 10706 10710 10715 10721 10727 10734 10744 10754 10761 10769 10779 10787 10788 10789 10802 10815 10820 10820 10820 10825 10833 10839 10840 10841 10852 10863 10867 10872 10877 10884 10893 10901 10914 10923 10921 10920 10925 10929 10932 10935 10938 10939 10937 10940 10945 10948 10950 10953 10957 10960 10963 10965 10966 10969
10647 10643 10641 10638 10635 10632 10630 10629 10627 10626 10625 10622 10621 10620 10617 10617 10617 10617 10618 10618 10621 10624 10624 10627 10631 10633 10636 10640 10646 10653 10659 10666 10675 10683 10690 10697 10700 10706 10713 10720 10729 10738 10747 10757 10765 10773 10777 10781 10792 10802 10805 10807 10810 10816 10824 10830 10834 10839 10847 10856 10862 10867 10872 10880 10890 10900 10913 10918 10915 10916 10921 10927 10928 10927 10931 10933 10933 10938 10941 10943 10946 10949 10953 10956 10960 10962 10964 10967
10636 10632 10629 10626 10623 10621 10618 10617 10615 10612 10610 10607 10606 10605 10604 10604 10603 10603 10601 10601 10605 10607 10608 10611 10614 10615 10618 10623 10628 10634 10641 10649 10658 10664 10672 10682 10686 10691 10697 10705 10714 10721 10732 10743 10750 10758 10765 10768 10776 10787 10794 10798 10801 10808 10817 10825 10829 10834 10840 10848 10857 10863 10868 10877 10886 10896 10906 10909 10909 10912 10918 10925 10922 10918 10925 10927 10927 10933 10936 10939 10943 10945 10949 10953 10956 10960 10962 10964
10625 10621 10618 10615 10613 10610 10607 10606 10604 10601 10597 10594 10592 10591 10591 10590 10589 10588 10587 10586 10588 10591 10594 10595 10596 10598 10601 10605 10610 10615 10621 10631 10641 10646 10653 10663 10670 10676 10682 10690 10698 10705 10716 10728 10733 10742 10751 10753 10763 10778 10786 10791 10795 10800 10809 10815 10818 10822 10829 10837 10846 10855 10862 10871 10878 10887 10896 10900 10902 10907 10916 10923 10915 10910 10917 10918 10920 10929 10933 10936 10939 10941 10945 10949 10952 10956 10958 10960
10615 10612 10609 10606 10604 10601 10597 10594 10592 10590 10586 10583 10579 10577 10577 10576 10575 10573 10573 10573 10573 10576 10579 10580 10580 10582 10584 10588 10592 10596 10603 10612 10622 10629 10635 10643 10652 10660 10667 10674 10682 10690 10699 10711 10719 10729 10738 10743 10754 10767 10775 10782 10786 10790 10796 10801 10805 10812 10818 10825 10838 10849 10855 10860 10867 10875 10885 10889 10894 10903 10913 10917 10907 10900 10907 10911 10916 10925 10928 10931 10936 10938 10942 10945 10949 10952 10954 10956
10606 10603 10600 10597 10595 10592 10588 10584 10581 10579 10576 10572 10568 10565 10563 10562 10561 10560 10559 10559 10560 10561 10563 10565 10566 10567 10569 10572 10575 10579 10585 10593 10603 10612 10618 10624 10632 10642 10651 10658 10667 10674 10682 10694 10706 10716 10725 10734 10742 10751 10762 10769 10773 10777 10782 10789 10799 10805 10811 10822 10837 10843 10843 10849 10859 10867 10876 10883 10890 10898 10906 10907 10896 10889 10900 10908 10911 10918 10923 10927 10932 10934 10938 10942 10945 10948 10949 10952
10594 10593 10591 10588 10586 10583 10579 10575 10571 10568 10565 10561 10558 10554 10551 10549 10548 10548 10547 10547 10547 10547 10548 10550 10552 10553 10554 10557 10559 10562 10568 10574 10584 10593 10601 10607 10613 10622 10633 10641 10650 10659 10666 10677 10690 10700 10712 10722 10727 10736 10748 10756 10761 10766 10770 10779 10789 10795 10804 10819 10826 10826 10830 10843 10852 10859 10870 10879 10885 10891 10897 10898 10888 10883 10896 10906 10906 10912 10918 10921 10926 10930 10934 10938 10941 10943 10945 10947
10584 10583 10581 10579 10576 10572 10568 10565 10562 10558 10554 10551 10548 10544 10541 10538 10536 10536 10536 10536 10535 10534 10535 10536 10537 10539 10540 10542 10544 10547 10551 10557 10566 10575 10584 10591 10596 10604 10613 10623 10633 10642 10651 10661 10672 10686 10701 10708 10712 10722 10734 10742 10749 10754 10757 10767 10777 10783 10795 10806 10807 10812 10824 10837 10846 10856 10866 10874 10880 10885 10891 10894 10886 10879 10891 10900 10900 10905 10911 10915 10921 10925 10930 10934 10936 10938 10940 10942
10577 10574 10572 10570 10566 10561 10558 10555 10552 10548 10545 10542 10539 10535 10532 10530 10527 10525 10525 10524 10523 10523 10522 10523 10523 10525 10527 10528 10530 10532 10536 10541 10548 10556 10567 10575 10581 10588 10595 10604 10616 10626 10636 10646 10655 10670 10686 10692 10698 10708 10718 10727 10734 10740 10746 10756 10765 10772 10783 10790 10793 10805 10818 10827 10838 10848 10857 10866 10873 10877 10884 10890 10882 10874 10883 10893 10895 10899 10905 10911 10916 10921 10925 10929 10931 10933 10935 10938
10570 10567 10564 10561 10557 10553 10549 10546 10542 10539 10536 10533 10530 10528 10525 10522 10519 10516 10514 10513 10512 10511 10511 10511 10511 10512 10514 10515 10517 10518 10522 10526 10532 10540 10550 10559 10566 10573 10578 10586 10598 10609 10620 10631 10641 10654 10668 10678 10686 10694 10703 10711 10720 10729 10737 10745 10752 10760 10770 10777 10785 10799 10810 10819 10831 10840 10848 10858 10865 10869 10878 10884 10875 10867 10876 10887 10890 10894 10901 10906 10912 10916 10920 10924 10926 10929 10932 10935
10562 10558 10556 10552 10548 10545 10542 10538 10534 10531 10528 10525 10522 10520 10516 10514 10511 10508 10505 10503 10501 10500 10499 10499 10499 10500 10502 10504 10505 10506 10509 10513 10518 10525 10534 10543 10551 10558 10563 10570 10582 10593 10604 10616 10626 10637 10651 10665 10675 10681 10689 10699 10710 10721 10727 10731 10738 10747 10757 10768 10780 10792 10802 10812 10826 10837 10846 10856 10861 10865 10873 10876 10868 10862 10869 10880 10885 10888 10895 10900 10906 10911 10915 10919 10922 10925 10928 10931
10554 10550 10547 10543 10540 10538 10535 10531 10527 10523 10520 10518 10515 10512 10509 10506 10503 10500 10497 10494 10492 10490 10488 10488 10488 10488 10490 10493 10494 10496 10497 10501 10505 10511 10519 10528 10536 10545 10550 10556 10566 10577 10589 10601 10612 10623 10636 10650 10662 10668 10677 10690 10700 10708 10712 10717 10726 10735 10747 10760 10773 10785 10795 10806 10821 10832 10840 10851 10857 10861 10868 10870 10863 10858 10861 10871 10877 10881 10888 10894 10900 10905 10909 10913 10917 10920 10924 10927
10547 10542 10538 10535 10532 10530 10527 10523 10520 10517 10514 10511 10509 10506 10502 10499 10495 10491 10488 10485 10483 10480 10478 10477 10477 10477 10478 10481 10482 10485 10486 10489 10493 10498 10504 10513 10522 10532 10538 10544 10552 10562 10574 10586 10598 10610 10621 10635 10648 10655 10666 10678 10684 10690 10696 10704 10713 10723 10737 10752 10765 10778 10789 10802 10817 10825 10832 10843 10849 10855 10864 10862 10855 10852 10853 10860 10869 10875 10882 10889 10894 10899 10904 10908 10912 10916 10920 10923
10540 10535 10531 10527 10524 10523 10520 10517 10514 10511 10507 10504 10502 10499 10496 10491 10487 10483 10480 10476 10473 10470 10468 10468 10467 10466 10467 10468 10469 10472 10475 10478 10482 10485 10490 10498 10507 10517 10525 10531 10539 10549 10560 10572 10584 10597 10608 10621 10634 10641 10650 10659 10663 10670 10680 10689 10699 10712 10726 10742 10756 10769 10781 10794 10807 10814 10823 10836 10842 10851 10858 10850 10845 10848 10846 10849 10863 10872 10877 10883 10889 10894 10899 10903 10907 10911 10915 10918
10533 10528 10524 10520 10517 10515 10513 10510 10507 10504 10502 10499 10495 10493 10489 10484 10479 10474 10471 10468 10463 10460 10459 10458 10458 10457 10456 10456 10457 10460 10462 10466 10470 10473 10477 10483 10492 10502 10510 10517 10526 10535 10546 10559 10572 10584 10595 10608 10619 10625 10633 10642 10648 10658 10671 10682 10693 10705 10717 10733 10747 10760 10772 10784 10795 10804 10816 10828 10835 10845 10850 10837 10836 10844 10840 10841 10856 10866 10871 10878 10883 10889 10893 10897 10901 10905 10909 10913
10527 10523 10519 10515 10512 10509 10506 10502 10499 10497 10495 10492 10489 10486 10482 10478 10472 10467 10463 10459 10454 10451 10449 10448 10447 10447 10446 10446 10446 10448 10450 10454 10458 10461 10465 10470 10478 10487 10495 10502 10511 10520 10531 10545 10559 10571 10582 10595 10606 10612 10620 10631 10641 10653 10667 10677 10687 10699 10711 10725 10738 10752 10764 10775 10786 10798 10811 10821 10828 10839 10838 10826 10829 10839 10834 10834 10848 10858 10865 10872 10877 10883 10889 10892 10897 10901 10905 10909
10521 10518 10514 10511 10508 10505 10502 10498 10494 10490 10487 10485 10482 10479 10475 10470 10466 10460 10456 10452 10447 10443 10441 10438 10436 10435 10436 10436 10436 10438 10440 10443 10446 10451 10455 10460 10466 10474 10482 10489 10497 10505 10516 10530 10544 10557 10570 10583 10593 10601 10609 10618 10629 10643 10657 10667 10677 10690 10702 10715 10729 10743 10755 10767 10780 10793 10804 10814 10823 10830 10826 10817 10822 10830 10827 10829 10841 10851 10859 10865 10871 10878 10884 10888 10892 10896 10900 10904
10516 10513 10509 10506 10503 10500 10498 10494 10490 10486 10482 10478 10475 10472 10468 10463 10458 10452 10448 10445 10440 10435 10432 10429 10427 10425 10426 10426 10426 10428 10430 10433 10436 10440 10445 10450 10456 10463 10470 10477 10485 10493 10503 10516 10529 10544 10558 10570 10580 10589 10597 10603 10615 10632 10647 10658 10668 10680 10693 10706 10719 10733 10747 10761 10774 10786 10797 10808 10816 10820 10814 10808 10812 10819 10822 10827 10835 10844 10853 10860 10866 10873 10878 10883 10888 10891 10896 10899
10511 10508 10505 10501 10498 10495 10493 10489 10486 10482 10478 10474 10470 10466 10461 10456 10451 10445 10439 10436 10433 10427 10422 10420 10419 10417 10416 10416 10417 10419 10422 10424 10427 10431 10436 10441 10446 10452 10459 10467 10475 10483 10492 10504 10517 10531 10546 10557 10566 10577 10586 10591 10604 10623 10637 10647 10657 10670 10683 10695 10707 10722 10739 10753 10766 10778 10789 10799 10807 10809 10803 10797 10802 10814 10822 10826 10830 10838 10849 10856 10862 10868 10873 10879 10883 10887 10890 10894
10506 10503 10500 10497 10493 10490 10488 10485 10481 10477 10473 10470 10466 10461 10456 10450 10445 10439 10432 10428 10425 10420 10415 10412 10411 10409 10408 10408 10409 10411 10414 10416 10419 10422 10427 10432 10437 10442 10449 10457 10465 10473 10482 10495 10507 10519 10533 10544 10554 10567 10578 10583 10594 10611 10625 10635 10647 10660 10672 10684 10697 10714 10730 10744 10756 10768 10781 10792 10799 10798 10790 10786 10796 10811 10818 10820 10824 10833 10843 10851 10858 10863 10868 10873 10877 10880 10884 10889
10501 10498 10495 10492 10489 10486 10483 10480 10476 10473 10468 10464 10460 10455 10450 10445 10438 10433 10427 10421 10417 10413 10408 10405 10403 10402 10401 10401 10402 10404 10406 10409 10412 10415 10419 10423 10428 10434 10441 10448 10456 10465 10474 10485 10496 10508 10520 10532 10544 10558 10568 10572 10581 10597 10612 10626 10638 10649 10661 10675 10691 10707 10721 10734 10747 10760 10773 10784 10788 10786 10779 10779 10793 10807 10812 10815 10820 10828 10837 10846 10852 10857 10861 10866 10870 10874 10879 10883
10497 10494 10491 10488 10485 10482 10479 10476 10472 10468 10464 10459 10454 10449 10444 10439 10432 10426 10422 10416 10410 10406 10402 10399 10397 10395 10395 10395 10396 10397 10400 10402 10405 10409 10412 10416 10420 10426 10433 10439 10447 10457 10465 10476 10487 10498 10509 10522 10534 10546 10557 10563 10569 10583 10602 10616 10626 10638 10653 10668 10684 10700 10713 10726 10739 10752 10765 10773 10776 10775 10771 10774 10790 10803 10807 10810 10816 10823 10832 10839 10845 10850 10854 10858 10863 10868 10873 10878